OBJECT AH (43789 NORAD) Tracking and Keplerian Element Data

This shows tracking and keplerian element data for the satellite.

Feedback or suggestion? Click here.




ElementValue
Catalog43789
NameOBJECT AH
Epoch Orbit528
Epoch Day10.15588462
Epoch Year2019
RAAN83.9605
Inclination97.7638
Eccentricity0.001713
Argument of Perigee135.6983
Mean Anonmoly224.5612
Mean Motion14.95421253
Decay Rate6.17E-06
L11 43789U 18099AH 19010.15588462 .00000617 00000-0 60936-4 0 9990
L22 43789 97.7638 83.9605 0017130 135.6983 224.5612 14.95421253 5284

Live tracking and technical data element details for OBJECT AH (NORAD 43789). OBJECT AH can be tracked NOW for your location showing map with azimuth and elevation plus other details from your city location.

Track the satellite on the map from your city or location and see movement details for azimuth, elevation, latitude, longitude, range, height, and movement on the map or in text.







IsCatalogInMostPopularTable: catalog: 43789, numindb: 19
Update: records affected: 1



GetName: 43789 OBJECT AH

Hit Count: updated at: Thu, 17 Jan 2019 14:39:10 GMT